Retour au catalogue

COSMOS 1900

ActifMilitaireLEO
NORAD 18665·PAYLOAD·🇷🇺 Russia

Lancé Dec 12, 1987 depuis Baikonur Cosmodrome

Loading…

Prochains Passages (prochaines 24 heures)

TLE

FraisSource: Space-Track

Époque: Sep 14, 2026, 09:08 UTC

1 18665U 87101A   26257.38097864  .00000028  00000-0  29905-4 0  9999
2 18665  66.0834 137.2360 0029841  27.6485 332.6200 14.55685929 61460

Suivez COSMOS 1900 en temps réel avec AllMySat

Download on the App Store